DW1389 Weather Reports


Display with metric or nautical units.
time (UTC)temp
F
wind
direction
speed
MPH
gust
MPH
rain 1hr
in
rain 24hr
in
rain mn
in
humidity
%
barometer
mb
20260505225901 83 263 2.0 6.0 0.00 0.00 0.00 71 1005.1
20260505225400 83 133 2.0 5.0 0.00 0.00 0.00 72 1005.1
20260505224901 83 169 2.0 6.0 0.00 0.00 0.00 72 1005.1
20260505224401 84 176 2.0 6.0 0.00 0.00 0.00 72 1005.1
20260505224141 84 0 2.0 9.0 0.00 0.00 0.00 72 1005.1
20260505223401 84 239 3.0 9.0 0.00 0.00 0.00 73 1005.1
20260505222902 84 134 3.0 8.0 0.00 0.00 0.00 71 1005.0
20260505222643 84 238 3.0 7.0 0.00 0.00 0.00 71 1004.9
20260505221902 84 175 3.0 7.0 0.00 0.00 0.00 71 1005.0
20260505221400 85 243 3.0 10.0 0.00 0.00 0.00 71 1005.1
20260505220901 85 320 2.0 10.0 0.00 0.00 0.00 70 1005.2
20260505220643 85 95 3.0 8.0 0.00 0.00 0.00 70 1005.2
20260505215901 85 130 3.0 7.0 0.00 0.00 0.00 70 1005.2
20260505215402 85 295 3.0 8.0 0.00 0.00 0.00 70 1005.4
20260505214901 84 269 4.0 8.0 0.00 0.00 0.00 71 1005.4
20260505214402 85 261 4.0 8.0 0.00 0.00 0.00 69 1005.4
20260505213902 85 271 3.0 7.0 0.00 0.00 0.00 68 1005.5
20260505213402 85 119 2.0 8.0 0.00 0.00 0.00 68 1005.5
20260505213144 85 225 3.0 11.0 0.00 0.00 0.00 69 1005.4
20260505212401 85 52 3.0 11.0 0.00 0.00 0.00 68 1005.6
20260505211901 85 146 3.0 12.0 0.00 0.00 0.00 69 1005.8
20260505211401 84 328 3.0 12.0 0.00 0.00 0.00 70 1005.8
20260505210901 84 316 3.0 10.0 0.00 0.00 0.00 69 1005.8
20260505210647 84 237 3.0 10.0 0.00 0.00 0.00 71 1005.7
20260505205904 84 159 3.0 8.0 0.00 0.00 0.00 71 1005.8
20260505205402 84 219 3.0 8.0 0.00 0.00 0.00 69 1005.9
20260505205143 83 125 3.0 7.0 0.00 0.00 0.00 70 1006.0
20260505204401 83 118 3.0 8.0 0.00 0.00 0.00 72 1006.0
20260505203901 83 254 3.0 8.0 0.00 0.00 0.00 71 1005.9
20260505203401 84 153 3.0 8.0 0.00 0.00 0.00 70 1006.1
20260505202902 84 228 3.0 10.0 0.00 0.00 0.00 71 1006.3
20260505202651 83 260 3.0 10.0 0.00 0.00 0.00 72 1006.3
20260505201903 83 250 3.0 8.0 0.00 0.00 0.00 72 1006.5
20260505201648 84 10 3.0 10.0 0.00 0.00 0.00 72 1006.7
20260505201148 84 195 3.0 10.0 0.00 0.00 0.00 72 1006.7
20260505200401 83 34 4.0 12.0 0.00 0.00 0.00 72 1006.7
20260505195902 83 225 4.0 12.0 0.00 0.00 0.00 72 1006.7
20260505195401 83 248 3.0 10.0 0.00 0.00 0.00 72 1006.8
20260505194901 83 260 3.0 10.0 0.00 0.00 0.00 73 1006.7
20260505194401 82 52 3.0 8.0 0.00 0.00 0.00 74 1006.9
20260505193901 82 257 3.0 9.0 0.00 0.00 0.00 74 1007.1
20260505193401 82 196 3.0 9.0 0.00 0.00 0.00 75 1007.2
20260505193146 82 209 3.0 7.0 0.00 0.00 0.00 73 1007.2
20260505192401 82 352 3.0 7.0 0.00 0.00 0.00 73 1007.2
20260505191901 82 186 3.0 7.0 0.00 0.00 0.00 74 1007.2
20260505191401 82 253 4.0 8.0 0.00 0.00 0.00 75 1007.3
20260505190901 82 227 4.0 8.0 0.00 0.00 0.00 75 1007.3
20260505190401 82 163 4.0 7.0 0.00 0.00 0.00 74 1007.3
20260505185900 81 268 4.0 7.0 0.00 0.00 0.00 75 1007.3
20260505185401 80 174 4.0 7.0 0.00 0.00 0.00 76 1007.4
20260505184901 80 307 4.0 11.0 0.00 0.00 0.00 76 1007.5
20260505184401 79 250 4.0 11.0 0.00 0.00 0.00 77 1007.6
20260505183900 79 234 4.0 9.0 0.00 0.00 0.00 76 1007.7
20260505183401 79 101 3.0 7.0 0.00 0.00 0.00 77 1007.7
20260505182901 79 328 3.0 8.0 0.00 0.00 0.00 78 1007.7
20260505182644 79 175 3.0 8.0 0.00 0.00 0.00 78 1007.8
20260505182150 78 264 3.0 8.0 0.00 0.00 0.00 79 1007.7
20260505181402 78 214 4.0 9.0 0.00 0.00 0.00 79 1007.8
20260505181221 77 213 4.0 11.0 0.00 0.00 0.00 79 1008.0
20260505180924 77 185 5.0 11.0 0.00 0.00 0.00 80 1007.9
20260505175900 78 215 4.0 8.0 0.00 0.00 0.00 79 1008.1
20260505175401 77 231 4.0 8.0 0.00 0.00 0.00 80 1008.1
20260505174901 77 133 4.0 11.0 0.00 0.00 0.00 80 1008.2
20260505174405 77 250 4.0 11.0 0.00 0.00 0.00 81 1008.1
20260505173900 77 264 4.0 8.0 0.00 0.00 0.00 81 1008.1
20260505173400 77 255 4.0 10.0 0.00 0.00 0.00 81 1008.2
20260505172900 77 237 4.0 10.0 0.00 0.00 0.00 82 1008.2
20260505172644 76 251 4.0 9.0 0.00 0.00 0.00 81 1008.2
20260505171901 76 229 4.0 9.0 0.00 0.00 0.00 83 1008.2
20260505171401 75 191 5.0 9.0 0.00 0.00 0.00 83 1008.2
20260505170901 75 271 4.0 10.0 0.00 0.00 0.00 83 1008.3
20260505170400 75 210 4.0 10.0 0.00 0.00 0.00 84 1008.3
20260505165903 75 279 4.0 9.0 0.00 0.00 0.00 84 1008.3
20260505165402 74 216 4.0 9.0 0.00 0.00 0.00 84 1008.3
20260505164901 74 230 4.0 9.0 0.00 0.00 0.00 85 1008.4
20260505164401 74 341 4.0 9.0 0.00 0.00 0.00 85 1008.3
20260505163901 74 250 4.0 8.0 0.00 0.00 0.00 86 1008.3
20260505163642 74 219 5.0 8.0 0.00 0.00 0.00 87 1008.4
20260505162901 73 171 5.0 8.0 0.00 0.00 0.00 87 1008.4
20260505162401 73 235 5.0 8.0 0.00 0.00 0.00 88 1008.2
20260505161901 73 211 4.0 9.0 0.00 0.00 0.00 88 1008.3
20260505161401 73 195 4.0 9.0 0.00 0.00 0.00 88 1008.3
20260505160901 73 169 4.0 9.0 0.00 0.00 0.00 88 1008.3
20260505160401 73 255 4.0 8.0 0.00 0.00 0.00 88 1008.2
20260505152901 73 242 4.0 8.0 0.00 0.00 0.00 89 1008.4
20260505152401 73 211 4.0 9.0 0.00 0.00 0.00 89 1008.4
20260505151902 73 201 4.0 9.0 0.00 0.00 0.00 89 1008.3
20260505151401 72 216 4.0 9.0 0.00 0.00 0.00 89 1008.3
20260505150901 72 254 5.0 8.0 0.00 0.00 0.00 89 1008.2
20260505150401 73 168 4.0 8.0 0.00 0.00 0.00 89 1008.2
20260505140350 72 209 4.0 10.0 0.00 0.00 0.00 90 1007.8
20260505124839 71 258 4.0 9.0 0.00 0.00 0.00 92 1007.3
20260505124339 71 234 4.0 8.0 0.00 0.00 0.00 91 1007.2
20260505123839 71 260 4.0 8.0 0.00 0.00 0.00 91 1007.1
20260505123623 71 133 4.0 8.0 0.00 0.00 0.00 91 1007.0
20260505122839 71 248 4.0 7.0 0.00 0.00 0.00 91 1006.8
20260505122339 71 280 3.0 7.0 0.00 0.00 0.00 91 1006.8
20260505121839 71 190 3.0 7.0 0.00 0.00 0.00 91 1006.7
20260505121616 71 227 3.0 7.0 0.00 0.00 0.00 91 1006.7
20260505120834 71 223 3.0 6.0 0.00 0.00 0.00 91 1006.6
20260505120334 71 217 3.0 6.0 0.00 0.00 0.00 90 1006.5
20260505115834 71 198 3.0 8.0 0.00 0.00 0.00 90 1006.4
20260505115333 71 231 4.0 9.0 0.00 0.00 0.00 90 1006.4
20260505115118 71 235 4.0 11.0 0.00 0.00 0.00 90 1006.6
20260505114333 71 168 4.0 11.0 0.00 0.00 0.00 90 1006.4
20260505113834 70 236 5.0 10.0 0.00 0.00 0.00 90 1006.6
20260505113334 70 108 5.0 10.0 0.00 0.00 0.00 90 1006.6
20260505112834 70 222 4.0 9.0 0.00 0.00 0.00 91 1006.6
20260505112619 70 151 4.0 9.0 0.00 0.00 0.00 91 1006.1
20260505111834 70 128 4.0 8.0 0.00 0.00 0.00 91 1006.3
20260505111334 70 260 4.0 8.0 0.00 0.00 0.00 90 1006.5
20260505110834 70 228 4.0 9.0 0.00 0.00 0.00 90 1006.6
20260505110335 70 149 4.0 9.0 0.00 0.00 0.00 90 1006.7
20260505101829 70 233 4.0 8.0 0.00 0.00 0.00 89 1006.8
20260505101608 70 181 3.0 8.0 0.00 0.00 0.00 89 1007.0
20260505100823 70 225 3.0 7.0 0.00 0.00 0.00 88 1006.8
20260505100323 70 223 4.0 9.0 0.00 0.00 0.00 88 1007.0
20260505095823 70 207 4.0 9.0 0.00 0.00 0.00 88 1007.0
20260505095323 70 288 3.0 6.0 0.00 0.00 0.00 88 1006.8
20260505094823 70 242 4.0 10.0 0.00 0.00 0.00 88 1006.8
20260505094323 70 242 4.0 10.0 0.00 0.00 0.00 88 1006.9
20260505093823 70 218 4.0 9.0 0.00 0.00 0.00 88 1007.0
20260505093323 71 206 4.0 9.0 0.00 0.00 0.00 88 1007.0
20260505092823 71 225 3.0 7.0 0.00 0.00 0.00 88 1007.1
20260505092323 71 257 3.0 9.0 0.00 0.00 0.00 88 1006.9
20260505091817 71 314 3.0 10.0 0.00 0.00 0.00 88 1007.0
20260505091602 71 283 4.0 10.0 0.00 0.00 0.00 87 1007.2
20260505090817 71 238 4.0 8.0 0.00 0.00 0.00 88 1007.2
20260505090318 71 181 4.0 9.0 0.00 0.00 0.00 88 1007.2
20260505090101 71 294 4.0 10.0 0.00 0.00 0.00 89 1007.1
20260505085318 71 181 4.0 10.0 0.00 0.00 0.00 89 1007.1
20260505084818 71 264 4.0 8.0 0.00 0.00 0.00 89 1007.3
20260505084317 71 245 4.0 10.0 0.00 0.00 0.00 89 1007.2
20260505083818 71 245 4.0 10.0 0.00 0.00 0.00 89 1007.1
20260505083317 71 223 4.0 10.0 0.00 0.00 0.00 89 1007.3
20260505082818 71 237 4.0 8.0 0.00 0.00 0.00 89 1007.4
20260505082558 71 226 4.0 8.0 0.00 0.00 0.00 89 1007.5
20260505081818 71 189 4.0 9.0 0.00 0.00 0.00 89 1007.5
20260505081318 71 297 4.0 9.0 0.00 0.00 0.00 89 1007.5
20260505080819 71 203 4.0 10.0 0.00 0.00 0.00 88 1007.5
20260505080312 71 220 4.0 10.0 0.00 0.00 0.00 88 1007.3
20260505075840 71 188 4.0 9.0 0.00 0.00 0.00 88 1007.5
20260505075832 71 305 4.0 8.0 0.00 0.00 0.00 88 1007.4
20260505074807 71 244 4.0 9.0 0.00 0.00 0.00 88 1007.7
20260505074307 71 201 3.0 9.0 0.00 0.00 0.00 88 1007.8
20260505074045 71 227 4.0 9.0 0.00 0.00 0.00 88 1007.7
20260505073306 71 265 4.0 8.0 0.00 0.00 0.00 88 1007.7
20260505072807 71 253 4.0 10.0 0.00 0.00 0.00 88 1007.8
20260505072307 71 240 4.0 10.0 0.00 0.00 0.00 88 1007.9
20260505071807 71 160 4.0 9.0 0.00 0.00 0.00 88 1008.2
20260505071307 71 238 4.0 7.0 0.00 0.00 0.00 88 1008.2
20260505070807 71 164 4.0 8.0 0.00 0.00 0.00 88 1008.2
20260505070551 71 188 4.0 9.0 0.00 0.00 0.00 88 1008.2
20260505070046 71 299 3.0 9.0 0.00 0.00 0.00 88 1008.3
20260505065301 71 294 3.0 7.0 0.00 0.00 0.00 88 1008.3
20260505064802 71 263 3.0 7.0 0.00 0.00 0.00 88 1008.3
20260505064302 71 235 3.0 8.0 0.00 0.00 0.00 88 1008.3
20260505063802 71 233 4.0 8.0 0.00 0.00 0.00 88 1008.3
20260505063301 71 248 4.0 8.0 0.00 0.00 0.00 88 1008.5
20260505062802 71 287 4.0 8.0 0.00 0.00 0.00 88 1008.5
20260505062304 71 230 3.0 8.0 0.00 0.00 0.00 88 1008.6
20260505061802 71 198 3.0 7.0 0.00 0.00 0.00 87 1008.7
20260505061302 71 297 4.0 9.0 0.00 0.00 0.00 87 1008.8
20260505060802 71 191 4.0 14.0 0.00 0.00 0.00 87 1008.7
20260505060302 71 283 4.0 14.0 0.00 0.00 0.00 87 1008.7
20260505055802 71 235 4.0 11.0 0.00 0.00 0.00 87 1008.7
20260505055303 71 274 4.0 10.0 0.00 0.00 0.00 87 1008.7
20260505054802 71 270 4.0 12.0 0.00 0.00 0.00 87 1008.7
20260505054302 71 198 4.0 12.0 0.00 0.00 0.00 87 1008.7
20260505053801 71 54 5.0 14.0 0.00 0.00 0.00 87 1008.6
20260505053301 71 14 5.0 14.0 0.00 0.00 0.00 87 1008.6
20260505052802 71 317 3.0 8.0 0.00 0.00 0.00 87 1008.7
20260505052552 71 304 3.0 8.0 0.00 0.00 0.00 88 1008.6
20260505051802 71 204 3.0 8.0 0.00 0.00 0.00 88 1008.7
20260505051302 71 191 3.0 8.0 0.00 0.00 0.00 88 1008.6
20260505050802 71 298 3.0 7.0 0.00 0.00 0.00 88 1008.5
20260505050301 71 284 2.0 6.0 0.00 0.00 0.00 88 1008.6
20260505041302 72 296 2.0 9.0 0.00 0.00 0.00 86 1008.6
20260505040802 72 298 3.0 9.0 0.00 0.00 0.00 85 1008.6
20260505040302 72 188 3.0 9.0 0.00 0.00 0.00 85 1008.5
20260505035801 72 300 2.0 7.0 0.00 0.00 0.00 85 1008.6
20260505035549 72 256 2.0 7.0 0.00 0.00 0.00 84 1008.7
20260505035045 73 186 3.0 6.0 0.00 0.00 0.00 84 1008.6
20260505034302 73 134 2.0 5.0 0.00 0.00 0.00 83 1008.7
20260505033802 73 183 2.0 4.0 0.00 0.00 0.00 83 1008.6
20260505033301 73 222 2.0 4.0 0.00 0.00 0.00 82 1008.6
20260505032802 73 174 2.0 5.0 0.00 0.00 0.00 82 1008.5
20260505032532 73 239 2.0 5.0 0.00 0.00 0.00 82 1008.5
20260505031802 74 201 2.0 5.0 0.00 0.00 0.00 81 1008.4
20260505031301 74 240 2.0 8.0 0.00 0.00 0.00 81 1008.5
20260505030802 74 222 2.0 8.0 0.00 0.00 0.00 80 1008.5
20260505030301 74 288 3.0 7.0 0.00 0.00 0.00 80 1008.6
20260505030039 74 70 3.0 7.0 0.00 0.00 0.00 79 1008.6
20260505025301 74 153 2.0 5.0 0.00 0.00 0.00 79 1008.5
20260505024801 74 181 2.0 5.0 0.00 0.00 0.00 79 1008.5
20260505024301 75 312 3.0 8.0 0.00 0.00 0.00 78 1008.4
20260505023817 75 187 2.0 4.0 0.00 0.00 0.00 77 1008.5
20260505023810 75 197 3.0 8.0 0.00 0.00 0.00 77 1008.5
20260505023025 75 242 2.0 5.0 0.00 0.00 0.00 77 1008.4
20260505022257 75 189 2.0 5.0 0.00 0.00 0.00 76 1008.5
20260505021757 75 107 2.0 5.0 0.00 0.00 0.00 76 1008.4
20260505021257 75 321 2.0 5.0 0.00 0.00 0.00 75 1008.2
20260505020758 75 155 2.0 5.0 0.00 0.00 0.00 75 1008.2
20260505020256 76 156 3.0 6.0 0.00 0.00 0.00 74 1008.2
20260505015756 76 249 3.0 7.0 0.00 0.00 0.00 74 1008.2
20260505015536 76 271 3.0 7.0 0.00 0.00 0.00 74 1008.3
20260505014756 76 315 2.0 5.0 0.00 0.00 0.00 73 1008.2
20260505014256 76 176 2.0 5.0 0.00 0.00 0.00 73 1008.3
20260505013757 76 248 2.0 4.0 0.00 0.00 0.00 72 1008.3
20260505013257 76 292 2.0 4.0 0.00 0.00 0.00 71 1008.3
20260505012757 77 148 2.0 5.0 0.00 0.00 0.00 70 1008.2
20260505012256 77 211 2.0 6.0 0.00 0.00 0.00 70 1008.2
20260505011752 77 313 2.0 7.0 0.00 0.00 0.00 69 1008.2
20260505011252 77 158 2.0 8.0 0.00 0.00 0.00 69 1008.1
20260505010824 78 231 3.0 9.0 0.00 0.00 0.00 68 1008.1
20260505010814 78 221 3.0 9.0 0.00 0.00 0.00 68 1008.1
20260505005750 78 223 3.0 8.0 0.00 0.00 0.00 68 1008.1
20260505005250 78 233 2.0 7.0 0.00 0.00 0.00 67 1008.1
20260505005034 78 182 3.0 6.0 0.00 0.00 0.00 67 1008.1
20260505004245 78 259 3.0 7.0 0.00 0.00 0.00 66 1008.1
20260505003745 78 270 2.0 7.0 0.00 0.00 0.00 66 1008.0
20260505003245 79 310 3.0 7.0 0.00 0.00 0.00 66 1008.0
20260505002744 79 222 2.0 10.0 0.00 0.00 0.00 65 1007.9
20260505002244 79 235 2.0 10.0 0.00 0.00 0.00 65 1008.0
20260505001745 79 226 3.0 11.0 0.00 0.00 0.00 64 1007.9
20260505001244 79 246 4.0 11.0 0.00 0.00 0.00 64 1007.8
20260505000744 80 139 4.0 11.0 0.00 0.00 0.00 63 1007.8
20260505000244 80 162 4.0 12.0 0.00 0.00 0.00 63 1007.9
20260504235744 81 27 4.0 12.0 0.00 0.00 0.00 62 1008.0
20260504235245 81 249 3.0 10.0 0.00 0.00 0.00 62 1008.0
20260504235031 81 223 3.0 13.0 0.00 0.00 0.00 61 1008.1
20260504234242 81 141 3.0 13.0 0.00 0.00 0.00 61 1008.1
20260504233741 81 321 3.0 8.0 0.00 0.00 0.00 61 1008.3
20260504233238 81 184 3.0 8.0 0.00 0.00 0.00 61 1008.3
20260504232738 81 193 4.0 11.0 0.00 0.00 0.00 61 1008.4
20260504232238 81 207 4.0 11.0 0.00 0.00 0.00 61 1008.3
20260504231738 81 232 4.0 10.0 0.00 0.00 0.00 61 1008.3
20260504231524 81 222 4.0 9.0 0.00 0.00 0.00 61 1008.5
20260504231024 81 257 4.0 8.0 0.00 0.00 0.00 61 1008.5
20260504230240 81 259 4.0 9.0 0.00 0.00 0.00 61 1008.5